FGSPB LFPB-LFMD

Flight info

Callsign FGSPB
Flight time 1h 8m
Altitude 35000
Route LATRA DCT LAMUT DCT UTUVA DCT LERGA DCT LIQID DCT LATAM DCT MTL DCT XATEL
Aircraft C750/M-SBDE3FGHRWXY/S

Departure

Time 2026-04-21 19:20
Airport Paris-Le Bourget International Airport (LFPB)

Arrival

Time 2026-04-21 20:28
Airport Cannes Mandelieu Airport (LFMD)
Time Latitude Longitude Altitude Speed Heading
2026-04-21 18:39 48.96002 2.44481 157 ft 0 kts 205°
2026-04-21 19:10 48.96000 2.44481 157 ft 1 kts 205°
2026-04-21 19:10 48.95987 2.44463 157 ft 2 kts 262°
2026-04-21 19:11 48.96000 2.44433 157 ft 5 kts 297°
2026-04-21 19:11 48.96022 2.44364 158 ft 7 kts 295°
2026-04-21 19:11 48.96034 2.44309 159 ft 5 kts 262°
2026-04-21 19:11 48.95992 2.44266 159 ft 7 kts 204°
2026-04-21 19:12 48.95973 2.44252 158 ft 3 kts 206°
2026-04-21 19:12 48.95949 2.44235 157 ft 3 kts 204°
2026-04-21 19:12 48.95945 2.44232 157 ft 0 kts 204°
2026-04-21 19:13 48.95942 2.44230 157 ft 1 kts 204°
2026-04-21 19:14 48.95923 2.44217 156 ft 5 kts 204°
2026-04-21 19:14 48.95878 2.44186 154 ft 9 kts 204°
2026-04-21 19:14 48.95819 2.44145 153 ft 9 kts 204°
2026-04-21 19:14 48.95752 2.44098 153 ft 11 kts 205°
2026-04-21 19:15 48.95697 2.44031 152 ft 10 kts 251°
2026-04-21 19:15 48.95721 2.43909 151 ft 14 kts 295°
2026-04-21 19:15 48.95759 2.43785 152 ft 10 kts 295°
2026-04-21 19:15 48.95787 2.43694 153 ft 9 kts 295°
2026-04-21 19:16 48.95813 2.43604 154 ft 9 kts 294°
2026-04-21 19:16 48.95838 2.43526 159 ft 11 kts 295°
2026-04-21 19:16 48.95878 2.43395 158 ft 16 kts 294°
2026-04-21 19:16 48.95927 2.43232 156 ft 17 kts 295°
2026-04-21 19:17 48.96075 2.42901 149 ft 20 kts 309°
2026-04-21 19:17 48.96163 2.42734 153 ft 20 kts 309°
2026-04-21 19:17 48.96241 2.42589 158 ft 15 kts 308°
2026-04-21 19:18 48.96270 2.42445 157 ft 13 kts 271°
2026-04-21 19:18 48.96266 2.42357 156 ft 4 kts 268°
2026-04-21 19:18 48.96265 2.42321 156 ft 3 kts 268°
2026-04-21 19:18 48.96265 2.42309 156 ft 0 kts 268°
2026-04-21 19:19 48.96264 2.42255 156 ft 9 kts 267°
2026-04-21 19:19 48.96261 2.42173 157 ft 7 kts 267°
2026-04-21 19:19 48.96294 2.42072 156 ft 17 kts 327°
2026-04-21 19:19 48.96371 2.42086 152 ft 8 kts 63°
2026-04-21 19:20 48.96379 2.42204 155 ft 25 kts 84°
2026-04-21 19:20 48.96426 2.43034 166 ft 129 kts 85°
2026-04-21 19:20 48.96502 2.44476 733 ft 138 kts 80°
2026-04-21 19:20 48.96575 2.45955 1573 ft 141 kts 84°
2026-04-21 19:21 48.96651 2.47529 2221 ft 161 kts 84°
2026-04-21 19:21 48.96758 2.49385 2694 ft 190 kts 84°
2026-04-21 19:21 48.96874 2.51551 3153 ft 222 kts 85°
2026-04-21 19:21 48.96899 2.54021 3759 ft 243 kts 94°
2026-04-21 19:22 48.96624 2.56463 5257 ft 229 kts 98°
2026-04-21 19:22 48.96406 2.58913 6268 ft 238 kts 95°
2026-04-21 19:22 48.96265 2.61430 6970 ft 231 kts 94°
2026-04-21 19:22 48.96113 2.63904 7008 ft 243 kts 95°
2026-04-21 19:23 48.95924 2.66584 7681 ft 255 kts 95°
2026-04-21 19:23 48.95738 2.69264 8944 ft 260 kts 94°
2026-04-21 19:23 48.95547 2.72085 9796 ft 273 kts 94°
2026-04-21 19:23 48.95343 2.75029 10471 ft 290 kts 94°
2026-04-21 19:24 48.95122 2.78222 10750 ft 317 kts 94°
2026-04-21 19:24 48.94810 2.81693 10916 ft 344 kts 94°
2026-04-21 19:24 48.94590 2.85333 11701 ft 346 kts 93°
2026-04-21 19:24 48.94356 2.89007 12474 ft 352 kts 94°
2026-04-21 19:25 48.93940 2.92713 13097 ft 362 kts 104°
2026-04-21 19:25 48.92716 2.96094 13856 ft 370 kts 126°
2026-04-21 19:25 48.91498 2.97928 14290 ft 376 kts 140°
2026-04-21 19:25 48.88278 3.00056 15099 ft 385 kts 170°
2026-04-21 19:26 48.86503 3.00156 15492 ft 387 kts 185°
2026-04-21 19:26 48.83915 2.99062 15979 ft 385 kts 207°
2026-04-21 19:26 48.81866 2.96729 16006 ft 357 kts 230°
2026-04-21 19:26 48.80543 2.93657 16007 ft 347 kts 249°
2026-04-21 19:27 48.79686 2.90226 16041 ft 350 kts 253°
2026-04-21 19:27 48.78861 2.86749 16034 ft 349 kts 253°
2026-04-21 19:27 48.78031 2.83329 16040 ft 343 kts 253°
2026-04-21 19:27 48.77201 2.79952 16020 ft 339 kts 253°
2026-04-21 19:28 48.76386 2.76612 16015 ft 336 kts 253°
2026-04-21 19:28 48.75572 2.73264 16010 ft 344 kts 253°
2026-04-21 19:28 48.74734 2.69840 16021 ft 350 kts 253°
2026-04-21 19:28 48.73879 2.66367 15992 ft 353 kts 253°
2026-04-21 19:29 48.73020 2.62885 16322 ft 351 kts 252°
2026-04-21 19:29 48.71821 2.59655 17003 ft 358 kts 235°
2026-04-21 19:29 48.69960 2.57126 18016 ft 365 kts 219°
2026-04-21 19:29 48.67762 2.55126 18791 ft 371 kts 216°
2026-04-21 19:30 48.65541 2.53195 19006 ft 372 kts 216°
2026-04-21 19:30 48.63291 2.51194 19012 ft 376 kts 217°
2026-04-21 19:30 48.61038 2.49167 18999 ft 378 kts 217°
2026-04-21 19:30 48.58778 2.47155 19077 ft 375 kts 217°
2026-04-21 19:31 48.56512 2.45149 19306 ft 379 kts 217°
2026-04-21 19:31 48.54248 2.43143 19874 ft 378 kts 217°
2026-04-21 19:31 48.51949 2.41160 20279 ft 385 kts 214°
2026-04-21 19:31 48.49358 2.39830 20932 ft 400 kts 199°
2026-04-21 19:32 48.46582 2.39196 21707 ft 407 kts 193°
2026-04-21 19:32 48.43711 2.39019 22300 ft 423 kts 180°
2026-04-21 19:32 48.40780 2.39799 23017 ft 431 kts 172°
2026-04-21 19:32 48.37837 2.40757 23758 ft 435 kts 172°
2026-04-21 19:33 48.34877 2.41831 24347 ft 440 kts 170°
2026-04-21 19:33 48.31903 2.43009 24967 ft 444 kts 169°
2026-04-21 19:33 48.28895 2.44145 25576 ft 447 kts 171°
2026-04-21 19:33 48.25852 2.45223 26111 ft 453 kts 172°
2026-04-21 19:34 48.22757 2.46336 26136 ft 463 kts 171°
2026-04-21 19:34 48.19619 2.47520 26567 ft 460 kts 170°
2026-04-21 19:34 48.16541 2.48684 27488 ft 456 kts 171°
2026-04-21 19:34 48.13439 2.49801 28042 ft 462 kts 172°
2026-04-21 19:35 48.10299 2.50926 28676 ft 465 kts 171°
2026-04-21 19:35 48.04029 2.53793 29883 ft 477 kts 166°
2026-04-21 19:35 48.00870 2.55379 30458 ft 481 kts 167°
2026-04-21 19:36 47.97672 2.56930 30880 ft 486 kts 167°
2026-04-21 19:36 47.94450 2.58494 31486 ft 488 kts 167°
2026-04-21 19:36 47.91219 2.60095 32010 ft 491 kts 167°
2026-04-21 19:36 47.87969 2.61706 32513 ft 494 kts 167°
2026-04-21 19:37 47.84674 2.63314 33028 ft 497 kts 167°
2026-04-21 19:37 47.81396 2.64908 33526 ft 500 kts 167°
2026-04-21 19:37 47.78083 2.66531 34012 ft 503 kts 167°
2026-04-21 19:37 47.74751 2.68165 34525 ft 503 kts 167°
2026-04-21 19:38 47.71559 2.69724 35066 ft 502 kts 167°
2026-04-21 19:38 47.68197 2.71349 34433 ft 514 kts 166°
2026-04-21 19:38 47.64824 2.72981 34464 ft 522 kts 163°
2026-04-21 19:38 47.61347 2.74683 35124 ft 531 kts 167°
2026-04-21 19:39 47.57805 2.76402 35093 ft 540 kts 167°
2026-04-21 19:39 47.50574 2.79900 35080 ft 547 kts 167°
2026-04-21 19:40 47.43415 2.83360 35072 ft 536 kts 167°
2026-04-21 19:40 47.36364 2.86745 35071 ft 531 kts 167°
2026-04-21 19:41 47.29250 2.90152 35099 ft 541 kts 167°
2026-04-21 19:41 47.21994 2.93628 35082 ft 555 kts 167°
2026-04-21 19:42 47.14698 2.97116 35071 ft 545 kts 167°
2026-04-21 19:42 47.07509 3.00270 35044 ft 535 kts 169°
2026-04-21 19:43 47.00354 3.03195 35042 ft 533 kts 169°
2026-04-21 19:43 46.93211 3.06145 35042 ft 533 kts 169°
2026-04-21 19:44 46.86046 3.09066 35047 ft 537 kts 169°
2026-04-21 19:44 46.78821 3.12026 35055 ft 542 kts 169°
2026-04-21 19:45 46.71529 3.14991 35059 ft 546 kts 169°
2026-04-21 19:45 46.64181 3.17982 35057 ft 550 kts 169°
2026-04-21 19:46 46.56800 3.20973 35056 ft 551 kts 169°
2026-04-21 19:46 46.49414 3.23960 35038 ft 551 kts 169°
2026-04-21 19:47 46.42027 3.26938 35035 ft 551 kts 169°
2026-04-21 19:47 46.34638 3.29901 35001 ft 551 kts 169°
2026-04-21 19:48 46.27385 3.32812 34990 ft 551 kts 169°
2026-04-21 19:48 46.19999 3.35758 34987 ft 551 kts 169°
2026-04-21 19:49 46.12615 3.38702 34985 ft 551 kts 169°
2026-04-21 19:49 46.05237 3.41631 34994 ft 549 kts 169°
2026-04-21 19:50 45.99112 3.44061 35003 ft 549 kts 169°
2026-04-21 19:50 45.90503 3.47461 35016 ft 549 kts 169°
2026-04-21 19:51 45.83217 3.50466 35014 ft 549 kts 167°
2026-04-21 19:51 45.76009 3.54096 35010 ft 553 kts 158°
2026-04-21 19:52 45.69203 3.59281 35014 ft 554 kts 154°
2026-04-21 19:52 45.62387 3.64401 35029 ft 552 kts 156°
2026-04-21 19:53 45.55572 3.69489 35024 ft 553 kts 155°
2026-04-21 19:53 45.48774 3.74610 35026 ft 552 kts 156°
2026-04-21 19:54 45.41957 3.79655 35017 ft 552 kts 155°
2026-04-21 19:54 45.35161 3.84747 35021 ft 552 kts 156°
2026-04-21 19:55 45.28342 3.89775 35012 ft 552 kts 156°
2026-04-21 19:55 45.21538 3.94833 35012 ft 552 kts 156°
2026-04-21 19:56 45.15038 4.00632 35007 ft 557 kts 143°
2026-04-21 19:56 45.09798 4.08738 35011 ft 561 kts 126°
2026-04-21 19:57 45.05811 4.18221 35024 ft 561 kts 119°
2026-04-21 19:57 45.01366 4.27200 35006 ft 558 kts 134°
2026-04-21 19:58 44.95452 4.34165 34999 ft 552 kts 148°
2026-04-21 19:58 44.89041 4.40063 34987 ft 550 kts 149°
2026-04-21 19:59 44.83032 4.46809 34985 ft 553 kts 141°
2026-04-21 19:59 44.77188 4.53832 34981 ft 551 kts 145°
2026-04-21 20:00 44.71097 4.60349 34981 ft 551 kts 143°
2026-04-21 20:00 44.65191 4.67241 34969 ft 551 kts 143°
2026-04-21 20:01 44.59139 4.73834 34958 ft 551 kts 144°
2026-04-21 20:01 44.53387 4.80840 34954 ft 553 kts 137°
2026-04-21 20:02 44.48896 4.87336 34946 ft 554 kts 136°
2026-04-21 20:02 44.42540 4.96154 34959 ft 554 kts 137°
2026-04-21 20:03 44.37142 5.03789 34445 ft 543 kts 136°
2026-04-21 20:03 44.34497 5.07493 33779 ft 532 kts 137°
2026-04-21 20:03 44.31887 5.11087 33061 ft 523 kts 137°
2026-04-21 20:03 44.29350 5.14611 32932 ft 506 kts 136°
2026-04-21 20:04 44.26738 5.17944 32885 ft 513 kts 146°
2026-04-21 20:04 44.20453 5.22926 32952 ft 530 kts 154°
2026-04-21 20:05 44.13935 5.27855 32939 ft 530 kts 154°
2026-04-21 20:05 44.10720 5.30320 32649 ft 521 kts 154°
2026-04-21 20:05 44.07622 5.32704 32295 ft 502 kts 154°
2026-04-21 20:05 44.04544 5.35036 31385 ft 506 kts 155°
2026-04-21 20:06 44.01428 5.37375 30688 ft 511 kts 154°
2026-04-21 20:06 43.98307 5.39746 30145 ft 511 kts 154°
2026-04-21 20:06 43.95209 5.42114 29536 ft 506 kts 154°
2026-04-21 20:06 43.92129 5.44438 28890 ft 501 kts 154°
2026-04-21 20:07 43.89013 5.46541 28181 ft 495 kts 161°
2026-04-21 20:07 43.85799 5.48093 27672 ft 485 kts 166°
2026-04-21 20:07 43.83622 5.48981 27278 ft 481 kts 168°
2026-04-21 20:07 43.79442 5.50544 26808 ft 452 kts 169°
2026-04-21 20:08 43.76425 5.51636 26093 ft 446 kts 169°
2026-04-21 20:08 43.73435 5.52701 25408 ft 442 kts 169°
2026-04-21 20:08 43.70470 5.53749 24736 ft 438 kts 169°
2026-04-21 20:08 43.67533 5.54780 23938 ft 434 kts 169°
2026-04-21 20:09 43.64672 5.56533 22559 ft 471 kts 147°
2026-04-21 20:09 43.62359 5.59771 21898 ft 476 kts 124°
2026-04-21 20:09 43.60898 5.63819 21424 ft 465 kts 111°
2026-04-21 20:09 43.59803 5.67928 21219 ft 450 kts 108°
2026-04-21 20:10 43.58731 5.71942 20927 ft 442 kts 110°
2026-04-21 20:10 43.57474 5.75784 20348 ft 438 kts 115°
2026-04-21 20:10 43.56128 5.79537 19778 ft 434 kts 115°
2026-04-21 20:10 43.54899 5.83315 19204 ft 430 kts 112°
2026-04-21 20:11 43.53759 5.87101 18641 ft 425 kts 112°
2026-04-21 20:11 43.52584 5.90814 18073 ft 420 kts 114°
2026-04-21 20:11 43.51776 5.93225 17687 ft 416 kts 115°
2026-04-21 20:11 43.50577 5.96822 17140 ft 410 kts 114°
2026-04-21 20:12 43.49433 6.00392 16618 ft 406 kts 113°
2026-04-21 20:12 43.48305 6.03939 16076 ft 403 kts 113°
2026-04-21 20:12 43.47152 6.07479 15556 ft 408 kts 114°
2026-04-21 20:12 43.45976 6.11048 15019 ft 411 kts 114°
2026-04-21 20:13 43.44810 6.14625 14481 ft 408 kts 114°
2026-04-21 20:13 43.43660 6.18179 13953 ft 405 kts 114°
2026-04-21 20:13 43.42513 6.21701 13384 ft 401 kts 114°
2026-04-21 20:13 43.41384 6.25173 12863 ft 393 kts 114°
2026-04-21 20:14 43.40280 6.28576 12351 ft 386 kts 114°
2026-04-21 20:14 43.39194 6.31924 11848 ft 381 kts 114°
2026-04-21 20:14 43.38123 6.35217 11354 ft 373 kts 114°
2026-04-21 20:14 43.37073 6.38438 10859 ft 363 kts 114°
2026-04-21 20:15 43.36072 6.41514 10403 ft 342 kts 114°
2026-04-21 20:15 43.35123 6.44421 9967 ft 325 kts 114°
2026-04-21 20:15 43.34218 6.47193 9532 ft 313 kts 114°
2026-04-21 20:15 43.33339 6.49882 9120 ft 311 kts 114°
2026-04-21 20:16 43.32456 6.52574 8721 ft 308 kts 114°
2026-04-21 20:16 43.31583 6.55233 8372 ft 304 kts 114°
2026-04-21 20:16 43.30770 6.57900 7945 ft 302 kts 106°
2026-04-21 20:16 43.30437 6.60726 7506 ft 299 kts 94°
2026-04-21 20:17 43.30255 6.63557 7135 ft 294 kts 93°
2026-04-21 20:17 43.30094 6.66311 6757 ft 288 kts 93°
2026-04-21 20:17 43.29934 6.69037 6425 ft 282 kts 93°
2026-04-21 20:17 43.29778 6.71697 6007 ft 280 kts 93°
2026-04-21 20:18 43.29624 6.74339 5535 ft 285 kts 93°
2026-04-21 20:18 43.29470 6.77078 5213 ft 285 kts 93°
2026-04-21 20:18 43.29043 6.79733 4769 ft 287 kts 108°
2026-04-21 20:18 43.28316 6.82241 4481 ft 280 kts 112°
2026-04-21 20:19 43.27580 6.84707 4089 ft 278 kts 112°
2026-04-21 20:19 43.26864 6.87149 3698 ft 275 kts 111°
2026-04-21 20:19 43.26156 6.89564 3307 ft 270 kts 112°
2026-04-21 20:19 43.25674 6.92006 2829 ft 266 kts 91°
2026-04-21 20:20 43.26221 6.94344 2482 ft 255 kts 54°
2026-04-21 20:20 43.27455 6.95934 2324 ft 236 kts 33°
2026-04-21 20:20 43.28941 6.96738 2172 ft 226 kts 13°
2026-04-21 20:20 43.30476 6.97165 2082 ft 225 kts 12°
2026-04-21 20:21 43.32000 6.97686 2004 ft 226 kts 15°
2026-04-21 20:21 43.33505 6.98281 2003 ft 224 kts 16°
2026-04-21 20:21 43.35008 6.98860 2003 ft 225 kts 15°
2026-04-21 20:21 43.36522 6.99429 2004 ft 226 kts 15°
2026-04-21 20:22 43.38068 6.99759 1939 ft 227 kts 356°
2026-04-21 20:22 43.41095 6.98887 2007 ft 224 kts 348°
2026-04-21 20:22 43.42629 6.98459 2009 ft 226 kts 350°
2026-04-21 20:23 43.44146 6.98038 2005 ft 213 kts 349°
2026-04-21 20:23 43.45514 6.97650 1980 ft 189 kts 350°
2026-04-21 20:23 43.46747 6.97303 1985 ft 173 kts 350°
2026-04-21 20:23 43.47885 6.96983 1983 ft 162 kts 350°
2026-04-21 20:24 43.48977 6.96677 1987 ft 159 kts 350°
2026-04-21 20:24 43.50068 6.96584 1908 ft 159 kts 15°
2026-04-21 20:24 43.51078 6.97119 2004 ft 158 kts 23°
2026-04-21 20:24 43.52138 6.97663 2007 ft 164 kts 22°
2026-04-21 20:25 43.53206 6.98207 2009 ft 164 kts 22°
2026-04-21 20:25 43.54283 6.98721 1993 ft 164 kts 14°
2026-04-21 20:25 43.55428 6.98656 2004 ft 165 kts 354°
2026-04-21 20:25 43.56576 6.98511 2009 ft 166 kts 358°
2026-04-21 20:26 43.57735 6.98439 2001 ft 168 kts 359°
2026-04-21 20:26 43.58867 6.98361 1986 ft 154 kts 359°
2026-04-21 20:26 43.59839 6.98025 1892 ft 142 kts 327°
2026-04-21 20:26 43.60279 6.96855 1584 ft 144 kts 271°
2026-04-21 20:27 43.59938 6.95660 1436 ft 133 kts 231°
2026-04-21 20:27 43.59259 6.94806 1253 ft 132 kts 212°
2026-04-21 20:27 43.58393 6.94457 1048 ft 129 kts 177°
2026-04-21 20:27 43.57517 6.94586 727 ft 127 kts 171°
2026-04-21 20:28 43.56656 6.94748 416 ft 123 kts 171°
2026-04-21 20:28 43.55831 6.94901 187 ft 118 kts 172°
2026-04-21 20:28 43.55028 6.95047 18 ft 109 kts 172°
2026-04-21 20:28 43.54529 6.95136 22 ft 36 kts 173°
2026-04-21 20:29 43.54410 6.95216 21 ft 11 kts 86°
2026-04-21 20:29 43.54414 6.95257 20 ft 3 kts 82°
2026-04-21 20:29 43.54415 6.95266 19 ft 0 kts 82°
2026-04-21 20:30 43.54415 6.95272 19 ft 1 kts 82°
2026-04-21 20:30 43.54420 6.95302 19 ft 4 kts 66°
2026-04-21 20:30 43.54445 6.95316 19 ft 7 kts
2026-04-21 20:31 43.54508 6.95305 20 ft 10 kts 353°
2026-04-21 20:31 43.54576 6.95293 20 ft 12 kts 353°
2026-04-21 20:31 43.54663 6.95277 19 ft 12 kts 352°
2026-04-21 20:31 43.54733 6.95265 19 ft 6 kts 353°
2026-04-21 20:32 43.54747 6.95268 19 ft 2 kts 30°
2026-04-21 20:32 43.54755 6.95297 19 ft 5 kts 79°
2026-04-21 20:32 43.54745 6.95328 19 ft 4 kts 160°
2026-04-21 20:32 43.54725 6.95331 19 ft 0 kts 174°